Reno, NV

3:09 AM PDT on October 15, 2019 (GMT -0700)
Reno-Tahoe International

Weather History for KRNO - August, 2019

Change the Weather History Date:

Thursday, August 29, 2019

  Actual Average Record
Temperature  
Mean Temperature 79 °F 70 °F  
Max Temperature 93 °F 88 °F 100 °F (1998)
Min Temperature 64 °F 53 °F 24 °F (1962)
Degree Days  
Heating Degree Days 0 0  
Month to date heating degree days 0 0  
Since 1 June heating degree days 15 61  
Since 1 July heating degree days 0 5  
Cooling Degree Days 14 6  
Month to date cooling degree days 378 247  
Year to date cooling degree days 969 734  
Since 1 June cooling degree days 955 697  
Growing Degree Days 29 (Base 50)    
Moisture  
Dew Point 45 °F    
Average Humidity 33    
Maximum Humidity 47    
Minimum Humidity 16    
Precipitation  
Precipitation 0.00 in 0.01 in 0.38 in (1923)
Month to date precipitation T 0.22  
Year to date precipitation 8.76 4.68  
Snow  
Snow 0.00 in 0.00 in 0.00 in ()
Month to date snowfall 0.0 0.0  
Since 1 June snowfall 0.0 T  
Since 1 July snowfall 0.0 0.0  
Snow Depth 0.00 in    
Sea Level Pressure  
Sea Level Pressure 29.93 in    
Wind  
Wind Speed 5 mph ()    
Max Wind Speed 23 mph    
Max Gust Speed 31 mph    
Visibility 10.0 miles    
Events      
T = Trace of Precipitation, MM = Missing Value Source: Averaged Metar Reports

Daily Weather History Graph

Daily Weather History Graph

Search for Another Location

Airport or City:

Astronomy

Aug. 29, 2019 Rise Set
Actual Time 6:24 AM PDT 7:34 PM PDT
Civil Twilight 5:56 AM PDT 8:02 PM PDT
Nautical Twilight 5:23 AM PDT 8:35 PM PDT
Astronomical Twilight 4:48 AM PDT 9:10 PM PDT
Moon 5:16 AM PDT (8/29) 7:34 PM PDT (8/29)
Length of Visible Light 14h 05m
Length of Day
13h 10m
Waning Crescent, 1% of the Moon is Illuminated
Aug 29
Waning Crescent
Aug 30
New
Sep 5
First Quarter
Sep 13
Full
Sep 21
Last Quarter

Hourly Weather History & Observations

Time (PDT) Temp. Dew Point Humidity Pressure Visibility Wind Dir Wind Speed Gust Speed Precip Events Conditions
12:55 AM 73.0 °F 42.1 °F 33% 29.93 in 10.0 mi SSE 4.6 mph - N/A   Clear
1:55 AM 70.0 °F 44.1 °F 39% 29.93 in 10.0 mi SSE 4.6 mph - N/A   Clear
2:55 AM 70.0 °F 44.1 °F 39% 29.92 in 10.0 mi SW 3.5 mph - N/A   Clear
3:55 AM 69.1 °F 43.0 °F 39% 29.93 in 10.0 mi West 3.5 mph - N/A   Clear
4:55 AM 66.9 °F 44.1 °F 44% 29.93 in 10.0 mi Calm Calm - N/A   Clear
5:55 AM 66.0 °F 45.0 °F 47% 29.94 in 10.0 mi SSW 3.5 mph - N/A   Clear
6:55 AM 66.0 °F 45.0 °F 47% 29.97 in 10.0 mi Calm Calm - N/A   Clear
7:55 AM 69.1 °F 45.0 °F 42% 29.97 in 10.0 mi Calm Calm - N/A   Clear
8:55 AM 73.0 °F 46.0 °F 38% 29.97 in 10.0 mi Calm Calm - N/A   Clear
9:55 AM 79.0 °F 46.0 °F 31% 29.97 in 10.0 mi Calm Calm - N/A   Clear
10:55 AM 82.9 °F 45.0 °F 26% 29.96 in 10.0 mi Calm Calm - N/A   Partly Cloudy
11:55 AM 86.0 °F 46.0 °F 25% 29.94 in 10.0 mi Calm Calm - N/A   Partly Cloudy
12:55 PM 90.0 °F 46.0 °F 22% 29.92 in 10.0 mi West 8.1 mph - N/A   Partly Cloudy
1:55 PM 93.0 °F 43.0 °F 18% 29.90 in 10.0 mi Variable 4.6 mph - N/A   Partly Cloudy
2:55 PM 93.9 °F 41.0 °F 16% 29.87 in 10.0 mi West 20.7 mph 25.3 mph N/A   Partly Cloudy
3:55 PM 93.0 °F 43.0 °F 18% 29.87 in 10.0 mi West 15.0 mph 27.6 mph N/A   Partly Cloudy
4:55 PM 90.0 °F 43.0 °F 19% 29.88 in 10.0 mi West 19.6 mph - N/A   Partly Cloudy
5:55 PM 88.0 °F 44.1 °F 22% 29.89 in 10.0 mi West 18.4 mph - N/A   Clear
6:55 PM 84.0 °F 45.0 °F 25% 29.91 in 10.0 mi West 15.0 mph 24.2 mph N/A   Clear
7:55 PM 80.1 °F 46.9 °F 31% 29.92 in 10.0 mi West 12.7 mph 21.9 mph N/A   Clear
8:55 PM 77.0 °F 48.9 °F 37% 29.94 in 10.0 mi West 17.3 mph - N/A   Clear
9:55 PM 75.0 °F 48.9 °F 40% 29.95 in 10.0 mi WNW 8.1 mph - N/A   Clear
10:55 PM 73.0 °F 48.9 °F 42% 29.96 in 10.0 mi WNW 6.9 mph 18.4 mph N/A   Clear
11:55 PM 71.1 °F 48.0 °F 44% 29.95 in 10.0 mi Calm Calm - N/A   Clear